SCP
-1 -1 -1 -1 -1 -1 -1 -1 -1 -1 -1 -1 -1 -0 -0 -0 -0 -0 -0 -0 -0 -0 -0 -0 -0 -0 -0 -0 -0 0 0 0 0 0 0 0 -0 -0 -0 -0 -0 -0 -0
-1 -2 -2 -1 -1 -1 -1 -1 -1 -1 -1 -1 -1 -0 -0 -0 -0 -0 -0 -0 -0 -0 -0 -0 -0 0 0 0 0 0 0 0 0 0 0 0 0 -0 -0 -0 -0 0 0
-1 -1 -1 -1 -1 -1 -1 -1 -1 -1 -1 -1 -1 -1 -0 -0 -0 -0 -0 -0 -0 -0 -0 -0 -0 0 0 0 0 0 0 0 0 0 0 0 0 -0 0 0 0 0 0
-1 -1 -1 -1 -1 -0 -0 -0 -1 -1 -1 -1 -0 -0 -0 -0 -0 -0 -0 -0 -0 -0 -0 -0 -0 0 0 0 0 0 0 0 0 0 0 0 0 0 0 0 0 0 0
-0 -0 -1 -1 -0 -0 -0 -0 -0 -0 -1 -1 -0 -0 -0 -0 -0 -0 -0 -0 -0 -0 0 0 0 0 0 0 0 0 0 0 0 0 0 0 0 0 0 0 0 0 0
0 -0 -1 -0 -0 -0 -0 -1 -0 -0 -0 -0 -0 -0 -0 -0 -0 -0 -0 0 0 0 0 0 0 0 0 0 0 0 0 0 0 0 0 0 0 0 0 0 0 0 0
-0 -0 -0 -0 -0 -1 -1 -1 -0 -0 -0 -0 -0 -0 -0 -0 -0 -0 0 0 0 0 0 0 0 0 0 0 0 0 0 0 0 0 0 0 0 0 0 0 0 0 0
-0 -1 -0 -0 -0 -1 -1 -1 -0 -0 -0 -0 -0 -0 -0 -0 0 0 0 0 0 0 0 0 0 0 0 0 0 0 0 0 0 0 0 0 0 0 0 0 1 1 1
0 -0 -0 0 0 -0 -0 -0 -0 -0 -0 -0 -0 -0 0 0 0 0 0 0 0 0 0 0 0 0 0 0 0 0 0 0 0 0 0 0 0 0 0 1 1 1 1
1 0 -0 -0 0 0 0 0 -0 -0 -0 -0 0 0 0 0 0 0 0 0 0 0 0 0 0 0 0 0 0 0 0 0 0 0 0 0 0 0 0 0 1 1 1
1 1 1 1 0 0 0 0 0 -0 -0 0 0 0 0 0 0 0 0 0 0 0 0 0 0 0 0 0 0 0 0 0 0 0 0 0 0 0 0 0 1 1 1
1 1 1 1 1 1 0 0 0 0 0 0 0 0 0 0 0 0 0 0 0 0 0 0 0 0 0 0 0 0 0 0 0 0 0 0 1 1 1 1 1 2 2
1 1 1 1 1 1 1 1 0 0 0 0 0 0 0 0 0 0 0 0 0 0 0 0 0 0 0 0 0 0 0 0 0 0 0 0 0 1 1 1 1 1 1
1 1 1 1 1 1 1 1 0 0 0 0 0 0 0 0 0 0 0 0 0 0 0 0 0 0 0 0 0 0 0 0 0 0 0 0 0 1 1 1 1 0 0
1 1 1 1 1 1 1 1 0 0 0 0 0 0 0 0 0 0 0 0 0 0 0 0 0 0 0 0 0 0 0 0 0 0 0 0 0 0 0 0 0 0 0
1 1 1 1 1 1 1 1 1 0 0 0 0 0 0 0 0 0 0 0 0 0 0 0 0 0 0 0 0 0 0 0 0 0 0 0 0 0 0 0 0 0 0
1 1 1 1 1 1 1 1 0 0 0 0 0 0 0 0 0 0 0 0 0 0 0 0 0 0 0 0 0 0 0 0 0 0 0 0 0 0 0 0 0 0 0
1 1 1 1 1 1 1 1 1 0 0 0 0 0 0 0 0 0 0 0 0 0 0 0 0 0 0 0 0 0 0 0 0 0 0 0 0 0 0 0 0 0 0
2 2 1 1 1 1 1 1 1 1 0 0 0 0 0 0 0 0 0 1 0 0 0 0 0 0 0 0 0 0 0 0 0 0 0 0 0 0 0 0 0 0 0
2 1 1 1 1 1 1 1 1 0 0 0 0 0 0 0 0 0 0 0 0 0 0 0 0 0 0 0 0 0 0 0 0 0 0 0 0 0 0 0 0 0 0
1 2 1 1 1 1 1 1 0 0 0 0 0 0 0 0 0 0 0 0 0 0 0 0 0 0 0 0 0 0 0 0 0 0 0 0 0 0 0 0 0 0 0
1 1 1 1 1 1 1 1 1 1 0 0 0 0 0 0 0 0 0 0 0 0 0 0 0 0 0 0 0 0 0 0 0 0 0 0 0 0 0 0 0 0 0
1 1 1 1 1 1 1 1 1 1 1 1 1 1 1 0 0 0 0 0 0 0 0 0 0 0 0 0 0 0 0 0 0 0 0 0 0 0 0 0 0 0 0
1 1 1 1 1 1 1 1 1 1 1 1 1 2 1 1 1 0 0 0 0 0 0 0 0 0 0 0 0 0 0 0 0 0 0 0 0 0 0 0 0 0 0
1 1 1 1 1 1 1 2 1 1 2 2 2 1 1 0 0 0 0 0 0 0 0 0 0 0 0 0 0 0 0 0 0 0 0 0 0 0 0 0 0 0 0
2 1 1 1 1 1 1 1 2 2 2 1 1 0 0 0 0 0 0 0 0 0 0 0 0 0 0 0 0 0 0 0 0 0 0 0 0 0 0 0 0 0 0
Wind_Speed_500mb
62 61 58 57 55 51 46 38 28 27 31 31 31 28 24 22 24 32 40 40 40 36 29 29 31 28 24 15 16 16 15 15 17 20 22 23 22 22 21 21 23 22 19
67 64 61 60 59 53 48 38 30 24 26 30 31 28 25 25 29 35 40 38 36 31 28 30 26 24 20 15 12 13 14 16 19 21 21 21 21 20 19 19 18 17 15
68 68 63 62 60 54 47 40 33 28 27 30 32 32 30 29 32 37 39 36 33 28 27 26 23 20 17 14 12 13 14 16 18 20 19 17 16 16 16 14 12 10 9
70 70 66 63 60 55 48 42 36 32 31 31 32 32 33 34 35 39 39 35 30 26 23 22 19 16 14 13 13 14 15 17 18 18 17 16 14 11 10 7 6 4 3
73 70 65 64 60 56 49 43 36 33 33 32 32 32 33 35 38 38 35 30 25 21 21 18 14 12 12 12 12 12 14 17 16 16 14 10 6 3 3 2 2 2 3
74 69 65 64 60 55 49 43 37 33 32 32 33 35 35 35 35 34 30 24 21 20 17 13 11 9 8 8 8 10 13 15 13 10 7 3 0 6 6 5 8 9 10
72 70 67 64 59 54 49 44 39 35 34 32 34 35 36 36 34 32 28 25 20 17 14 11 9 8 7 7 8 10 12 13 9 5 4 5 8 9 10 10 12 14 14
74 73 70 65 60 55 50 46 42 37 33 32 32 34 35 33 31 29 26 22 19 16 14 12 11 11 9 9 10 11 16 19 13 11 10 11 12 13 15 16 15 15 16
76 75 73 68 62 55 52 50 45 40 35 32 32 33 33 31 28 26 24 23 20 17 14 12 10 10 9 8 8 12 16 17 15 17 17 18 20 21 20 23 26 26 26
77 75 76 72 66 61 58 53 48 43 38 34 32 33 34 31 28 27 25 22 19 16 13 13 12 11 10 8 8 11 13 17 20 21 24 27 28 30 30 30 31 31 34
74 77 78 76 73 68 64 58 51 46 41 35 35 34 34 34 33 30 26 24 20 18 16 14 12 9 7 9 11 12 13 15 17 19 22 25 27 31 35 38 38 39 40
81 81 82 80 78 75 70 65 59 53 47 42 38 37 37 36 34 31 27 24 22 19 14 11 9 8 7 6 9 11 13 14 13 10 11 15 16 21 23 24 26 35 40
80 82 86 83 77 75 74 71 66 59 53 46 41 39 38 38 36 33 28 23 19 14 11 10 8 6 3 1 4 5 7 8 9 11 17 23 28 31 33 33 34 34 36
81 84 86 83 80 78 76 72 67 62 56 51 45 40 39 37 35 33 28 22 15 12 12 8 4 6 4 4 5 7 8 9 10 14 22 28 33 36 37 39 38 37 36
72 86 91 84 83 81 74 71 66 62 53 46 43 42 41 39 36 34 29 26 19 14 14 8 6 4 4 7 9 9 10 12 16 20 28 33 35 35 32 27 25 24 26
71 90 89 86 84 78 75 69 65 55 52 48 47 44 40 36 37 34 31 29 21 13 11 8 7 7 9 12 12 12 15 18 21 25 29 30 30 24 17 17 18 21 16
86 90 90 89 83 78 70 65 59 57 53 50 45 43 41 39 34 36 34 29 19 13 10 9 12 11 14 16 16 19 23 25 26 27 28 23 16 14 15 19 24 19 24
78 90 89 88 83 77 70 67 64 60 55 50 46 41 41 37 36 32 32 25 18 13 10 13 13 14 16 18 21 26 28 27 25 27 22 13 13 19 19 20 25 28 31
89 90 91 90 83 77 70 66 62 59 56 49 45 44 40 40 38 32 30 22 15 12 10 10 17 17 18 20 26 26 25 29 27 19 10 11 12 12 15 22 27 32 36
83 87 87 90 79 77 70 68 65 60 55 51 48 43 39 38 40 34 27 18 14 13 11 14 15 16 17 21 23 23 22 13 6 5 8 10 12 15 20 27 35 40 42
79 84 86 82 80 79 78 72 69 68 62 56 51 44 41 43 40 36 27 18 13 9 11 15 18 17 17 19 19 8 5 4 7 9 9 15 20 23 28 35 41 48 51
76 82 75 80 79 82 79 77 75 73 64 57 51 49 48 45 43 36 28 19 11 11 14 16 16 15 15 16 3 5 1 5 9 18 24 25 25 27 34 43 49 53 53
75 77 80 82 79 83 83 82 76 65 62 60 57 58 54 47 44 37 30 23 14 15 17 15 12 11 11 4 0 4 6 5 15 18 23 25 30 31 42 46 47 49 49
71 76 81 81 84 84 84 83 78 73 70 68 67 61 57 54 38 31 24 18 17 23 16 12 10 6 3 6 8 13 14 14 8 13 13 21 34 37 48 47 44 38 49
61 74 81 84 87 85 89 83 78 70 71 65 66 60 56 41 28 24 12 14 28 18 13 9 7 6 2 9 13 16 16 16 15 10 28 24 32 30 31 41 33 29 36
53 65 77 86 88 88 87 82 79 76 71 64 68 62 50 41 37 28 13 45 28 18 12 11 8 2 8 13 14 12 10 7 11 13 25 33 40 34 39 19 27 33 33
Wind_Direction_500mb
174 174 171 171 172 172 166 160 164 161 159 162 164 161 151 146 145 141 143 141 140 139 140 147 150 157 157 141 133 136 132 122 120 119 122 120 120 118 115 111 109 107 106
173 177 173 172 173 173 167 170 180 170 163 165 167 168 160 154 147 144 145 144 144 143 136 140 144 148 152 149 139 135 132 129 128 126 122 126 119 119 117 112 110 112 104
176 174 173 172 173 173 169 178 183 176 169 168 166 164 161 157 151 149 148 149 151 150 149 150 154 157 158 156 146 135 130 129 126 123 126 118 117 113 110 112 113 110 101
177 173 174 172 174 174 180 183 184 177 170 167 165 162 161 156 154 153 153 152 153 155 154 155 155 153 150 148 145 142 140 138 138 137 124 117 111 106 107 111 109 100 68
177 174 175 175 176 178 183 185 186 178 171 168 166 164 161 157 156 156 154 152 152 155 151 150 150 148 147 147 148 150 151 147 135 123 111 96 92 102 120 142 192 234 272
177 175 177 177 178 180 183 186 185 178 171 167 167 165 162 159 158 159 156 153 144 144 150 156 159 155 146 143 152 162 162 159 150 145 151 118 75 268 258 283 292 284 283
176 178 179 179 180 182 184 187 185 180 172 168 168 165 163 162 163 164 163 159 155 152 156 154 153 154 151 154 164 172 174 174 166 208 247 292 299 282 268 269 281 286 297
178 179 180 179 183 183 185 188 186 182 174 169 169 167 167 165 165 166 166 164 164 161 159 165 164 165 171 178 179 182 184 189 201 222 254 264 286 279 267 270 275 283 292
183 182 180 180 184 185 188 189 187 183 179 173 172 172 171 168 167 164 166 168 167 165 166 170 171 174 188 203 209 213 212 219 229 242 260 276 285 288 283 280 284 279 277
184 184 182 182 183 185 187 190 188 185 182 178 175 174 174 171 166 165 167 168 170 166 165 169 173 184 194 216 233 239 238 243 251 260 272 283 289 290 289 287 290 291 280
184 186 186 185 184 186 187 187 189 188 184 180 178 176 176 176 173 172 172 173 170 170 176 174 181 185 198 227 240 252 260 263 267 278 291 298 299 301 295 292 287 280 281
187 188 190 190 187 187 187 187 188 186 185 186 182 180 181 181 181 178 178 176 178 179 179 185 180 192 200 244 280 281 279 281 285 288 295 305 312 311 306 304 291 280 275
190 191 191 193 191 190 189 188 189 189 189 188 185 184 183 184 183 182 181 186 182 188 185 190 191 198 153 79 329 315 308 297 294 286 301 311 316 314 317 314 308 302 298
194 195 192 194 193 193 193 192 193 192 192 191 186 184 186 187 185 183 184 184 185 187 186 175 173 137 107 64 27 11 13 6 346 324 315 311 308 311 314 313 311 306 307
197 198 196 195 196 197 195 195 196 196 196 194 188 187 188 187 183 181 183 175 165 148 157 150 165 195 265 298 306 320 313 307 312 311 309 304 307 310 310 311 314 320 314
199 203 200 198 200 200 198 200 200 197 197 195 192 188 183 181 183 177 180 177 164 168 194 211 242 268 301 305 298 300 306 304 304 302 301 304 307 311 315 311 318 324 341
208 206 202 200 201 202 200 203 201 200 198 198 193 189 184 180 177 184 178 181 179 179 211 246 264 293 305 301 298 308 312 305 303 301 298 301 306 312 308 311 320 312 312
205 208 205 201 202 202 202 202 202 201 199 198 194 188 187 180 179 178 178 178 175 186 224 257 277 295 307 304 303 307 308 301 302 297 292 283 311 305 310 319 322 323 320
211 209 206 203 203 203 202 202 203 203 202 198 194 193 190 185 184 177 182 180 183 205 237 272 280 284 291 296 309 313 308 305 301 292 275 305 315 321 310 313 315 313 310
209 211 209 205 204 204 202 202 203 204 203 199 198 197 194 193 192 188 185 179 199 216 246 264 275 285 296 315 317 315 309 308 311 268 297 303 310 312 311 311 314 313 310
207 212 210 206 206 205 203 202 204 205 202 201 200 197 200 196 190 190 192 193 203 218 257 281 295 297 310 320 321 327 344 334 265 277 294 292 294 300 309 315 318 319 318
211 210 207 207 209 208 206 205 206 206 203 203 202 202 198 190 193 194 199 210 221 244 278 295 293 285 309 311 338 353 332 325 300 289 290 286 294 310 319 323 322 320 318
207 209 206 208 211 209 207 207 208 208 207 205 204 200 197 199 198 199 206 216 238 266 278 290 274 288 291 255 353 4 334 321 323 305 307 297 301 310 318 321 323 321 322
209 210 209 209 214 210 211 210 212 210 206 203 201 195 200 205 199 202 203 225 259 266 275 266 270 250 177 218 291 313 315 302 309 305 309 301 307 310 312 320 322 321 326
212 210 207 212 214 213 214 212 213 211 207 206 200 201 203 203 200 185 199 285 259 260 253 235 211 157 218 276 304 318 316 314 309 300 303 308 314 317 317 323 319 321 326
208 210 211 214 215 216 216 211 215 214 210 208 207 208 209 204 187 182 197 227 231 215 201 176 155 221 301 306 312 320 323 333 319 318 306 311 314 318 319 318 322 323 322
Wind_Speed_850mb
62 61 58 57 55 51 46 38 28 27 31 31 31 28 24 22 24 32 40 40 40 36 29 29 31 28 24 15 16 16 15 15 17 20 22 23 22 22 21 21 23 22 19
67 64 61 60 59 53 48 38 30 24 26 30 31 28 25 25 29 35 40 38 36 31 28 30 26 24 20 15 12 13 14 16 19 21 21 21 21 20 19 19 18 17 15
68 68 63 62 60 54 47 40 33 28 27 30 32 32 30 29 32 37 39 36 33 28 27 26 23 20 17 14 12 13 14 16 18 20 19 17 16 16 16 14 12 10 9
70 70 66 63 60 55 48 42 36 32 31 31 32 32 33 34 35 39 39 35 30 26 23 22 19 16 14 13 13 14 15 17 18 18 17 16 14 11 10 7 6 4 3
73 70 65 64 60 56 49 43 36 33 33 32 32 32 33 35 38 38 35 30 25 21 21 18 14 12 12 12 12 12 14 17 16 16 14 10 6 3 3 2 2 2 3
74 69 65 64 60 55 49 43 37 33 32 32 33 35 35 35 35 34 30 24 21 20 17 13 11 9 8 8 8 10 13 15 13 10 7 3 0 6 6 5 8 9 10
72 70 67 64 59 54 49 44 39 35 34 32 34 35 36 36 34 32 28 25 20 17 14 11 9 8 7 7 8 10 12 13 9 5 4 5 8 9 10 10 12 14 14
74 73 70 65 60 55 50 46 42 37 33 32 32 34 35 33 31 29 26 22 19 16 14 12 11 11 9 9 10 11 16 19 13 11 10 11 12 13 15 16 15 15 16
76 75 73 68 62 55 52 50 45 40 35 32 32 33 33 31 28 26 24 23 20 17 14 12 10 10 9 8 8 12 16 17 15 17 17 18 20 21 20 23 26 26 26
77 75 76 72 66 61 58 53 48 43 38 34 32 33 34 31 28 27 25 22 19 16 13 13 12 11 10 8 8 11 13 17 20 21 24 27 28 30 30 30 31 31 34
74 77 78 76 73 68 64 58 51 46 41 35 35 34 34 34 33 30 26 24 20 18 16 14 12 9 7 9 11 12 13 15 17 19 22 25 27 31 35 38 38 39 40
81 81 82 80 78 75 70 65 59 53 47 42 38 37 37 36 34 31 27 24 22 19 14 11 9 8 7 6 9 11 13 14 13 10 11 15 16 21 23 24 26 35 40
80 82 86 83 77 75 74 71 66 59 53 46 41 39 38 38 36 33 28 23 19 14 11 10 8 6 3 1 4 5 7 8 9 11 17 23 28 31 33 33 34 34 36
81 84 86 83 80 78 76 72 67 62 56 51 45 40 39 37 35 33 28 22 15 12 12 8 4 6 4 4 5 7 8 9 10 14 22 28 33 36 37 39 38 37 36
72 86 91 84 83 81 74 71 66 62 53 46 43 42 41 39 36 34 29 26 19 14 14 8 6 4 4 7 9 9 10 12 16 20 28 33 35 35 32 27 25 24 26
71 90 89 86 84 78 75 69 65 55 52 48 47 44 40 36 37 34 31 29 21 13 11 8 7 7 9 12 12 12 15 18 21 25 29 30 30 24 17 17 18 21 16
86 90 90 89 83 78 70 65 59 57 53 50 45 43 41 39 34 36 34 29 19 13 10 9 12 11 14 16 16 19 23 25 26 27 28 23 16 14 15 19 24 19 24
78 90 89 88 83 77 70 67 64 60 55 50 46 41 41 37 36 32 32 25 18 13 10 13 13 14 16 18 21 26 28 27 25 27 22 13 13 19 19 20 25 28 31
89 90 91 90 83 77 70 66 62 59 56 49 45 44 40 40 38 32 30 22 15 12 10 10 17 17 18 20 26 26 25 29 27 19 10 11 12 12 15 22 27 32 36
83 87 87 90 79 77 70 68 65 60 55 51 48 43 39 38 40 34 27 18 14 13 11 14 15 16 17 21 23 23 22 13 6 5 8 10 12 15 20 27 35 40 42
79 84 86 82 80 79 78 72 69 68 62 56 51 44 41 43 40 36 27 18 13 9 11 15 18 17 17 19 19 8 5 4 7 9 9 15 20 23 28 35 41 48 51
76 82 75 80 79 82 79 77 75 73 64 57 51 49 48 45 43 36 28 19 11 11 14 16 16 15 15 16 3 5 1 5 9 18 24 25 25 27 34 43 49 53 53
75 77 80 82 79 83 83 82 76 65 62 60 57 58 54 47 44 37 30 23 14 15 17 15 12 11 11 4 0 4 6 5 15 18 23 25 30 31 42 46 47 49 49
71 76 81 81 84 84 84 83 78 73 70 68 67 61 57 54 38 31 24 18 17 23 16 12 10 6 3 6 8 13 14 14 8 13 13 21 34 37 48 47 44 38 49
61 74 81 84 87 85 89 83 78 70 71 65 66 60 56 41 28 24 12 14 28 18 13 9 7 6 2 9 13 16 16 16 15 10 28 24 32 30 31 41 33 29 36
53 65 77 86 88 88 87 82 79 76 71 64 68 62 50 41 37 28 13 45 28 18 12 11 8 2 8 13 14 12 10 7 11 13 25 33 40 34 39 19 27 33 33
Wind_Direction_850mb
174 174 171 171 172 172 166 160 164 161 159 162 164 161 151 146 145 141 143 141 140 139 140 147 150 157 157 141 133 136 132 122 120 119 122 120 120 118 115 111 109 107 106
173 177 173 172 173 173 167 170 180 170 163 165 167 168 160 154 147 144 145 144 144 143 136 140 144 148 152 149 139 135 132 129 128 126 122 126 119 119 117 112 110 112 104
176 174 173 172 173 173 169 178 183 176 169 168 166 164 161 157 151 149 148 149 151 150 149 150 154 157 158 156 146 135 130 129 126 123 126 118 117 113 110 112 113 110 101
177 173 174 172 174 174 180 183 184 177 170 167 165 162 161 156 154 153 153 152 153 155 154 155 155 153 150 148 145 142 140 138 138 137 124 117 111 106 107 111 109 100 68
177 174 175 175 176 178 183 185 186 178 171 168 166 164 161 157 156 156 154 152 152 155 151 150 150 148 147 147 148 150 151 147 135 123 111 96 92 102 120 142 192 234 272
177 175 177 177 178 180 183 186 185 178 171 167 167 165 162 159 158 159 156 153 144 144 150 156 159 155 146 143 152 162 162 159 150 145 151 118 75 268 258 283 292 284 283
176 178 179 179 180 182 184 187 185 180 172 168 168 165 163 162 163 164 163 159 155 152 156 154 153 154 151 154 164 172 174 174 166 208 247 292 299 282 268 269 281 286 297
178 179 180 179 183 183 185 188 186 182 174 169 169 167 167 165 165 166 166 164 164 161 159 165 164 165 171 178 179 182 184 189 201 222 254 264 286 279 267 270 275 283 292
183 182 180 180 184 185 188 189 187 183 179 173 172 172 171 168 167 164 166 168 167 165 166 170 171 174 188 203 209 213 212 219 229 242 260 276 285 288 283 280 284 279 277
184 184 182 182 183 185 187 190 188 185 182 178 175 174 174 171 166 165 167 168 170 166 165 169 173 184 194 216 233 239 238 243 251 260 272 283 289 290 289 287 290 291 280
184 186 186 185 184 186 187 187 189 188 184 180 178 176 176 176 173 172 172 173 170 170 176 174 181 185 198 227 240 252 260 263 267 278 291 298 299 301 295 292 287 280 281
187 188 190 190 187 187 187 187 188 186 185 186 182 180 181 181 181 178 178 176 178 179 179 185 180 192 200 244 280 281 279 281 285 288 295 305 312 311 306 304 291 280 275
190 191 191 193 191 190 189 188 189 189 189 188 185 184 183 184 183 182 181 186 182 188 185 190 191 198 153 79 329 315 308 297 294 286 301 311 316 314 317 314 308 302 298
194 195 192 194 193 193 193 192 193 192 192 191 186 184 186 187 185 183 184 184 185 187 186 175 173 137 107 64 27 11 13 6 346 324 315 311 308 311 314 313 311 306 307
197 198 196 195 196 197 195 195 196 196 196 194 188 187 188 187 183 181 183 175 165 148 157 150 165 195 265 298 306 320 313 307 312 311 309 304 307 310 310 311 314 320 314
199 203 200 198 200 200 198 200 200 197 197 195 192 188 183 181 183 177 180 177 164 168 194 211 242 268 301 305 298 300 306 304 304 302 301 304 307 311 315 311 318 324 341
208 206 202 200 201 202 200 203 201 200 198 198 193 189 184 180 177 184 178 181 179 179 211 246 264 293 305 301 298 308 312 305 303 301 298 301 306 312 308 311 320 312 312
205 208 205 201 202 202 202 202 202 201 199 198 194 188 187 180 179 178 178 178 175 186 224 257 277 295 307 304 303 307 308 301 302 297 292 283 311 305 310 319 322 323 320
211 209 206 203 203 203 202 202 203 203 202 198 194 193 190 185 184 177 182 180 183 205 237 272 280 284 291 296 309 313 308 305 301 292 275 305 315 321 310 313 315 313 310
209 211 209 205 204 204 202 202 203 204 203 199 198 197 194 193 192 188 185 179 199 216 246 264 275 285 296 315 317 315 309 308 311 268 297 303 310 312 311 311 314 313 310
207 212 210 206 206 205 203 202 204 205 202 201 200 197 200 196 190 190 192 193 203 218 257 281 295 297 310 320 321 327 344 334 265 277 294 292 294 300 309 315 318 319 318
211 210 207 207 209 208 206 205 206 206 203 203 202 202 198 190 193 194 199 210 221 244 278 295 293 285 309 311 338 353 332 325 300 289 290 286 294 310 319 323 322 320 318
207 209 206 208 211 209 207 207 208 208 207 205 204 200 197 199 198 199 206 216 238 266 278 290 274 288 291 255 353 4 334 321 323 305 307 297 301 310 318 321 323 321 322
209 210 209 209 214 210 211 210 212 210 206 203 201 195 200 205 199 202 203 225 259 266 275 266 270 250 177 218 291 313 315 302 309 305 309 301 307 310 312 320 322 321 326
212 210 207 212 214 213 214 212 213 211 207 206 200 201 203 203 200 185 199 285 259 260 253 235 211 157 218 276 304 318 316 314 309 300 303 308 314 317 317 323 319 321 326
208 210 211 214 215 216 216 211 215 214 210 208 207 208 209 204 187 182 197 227 231 215 201 176 155 221 301 306 312 320 323 333 319 318 306 311 314 318 319 318 322 323 322